STARLINK-32556, 61858

Orbit data source: Space-Track

STARLINK-32556, 61858 is a payload satellite owned by SpaceX/Seattle (US) in LEO that was launched on Thu, 07 Nov 2024 UTC via an FALCON 9 launch vehicle from the Air Force Eastern Test Range (AFETR). Payload-class satellites include a variety of spacecraft equipped with specific instruments for various scientific and technological missions. These include communications satellites like Starlink; space stations such as the ISS; scientific satellites like the Hubble; Earth observation satellites from companies like Planet Labs, Umbra, and HawkEye 360; GPS; miniature CubeSats for education and research; and military/defense satellites.

Loading next visibility...
Identifier
61858, 2024-202P
Orbit
LEO
Country
Flag of USUS
Related business
Manufacturer
SpaceX/Seattle
Mission
Operational Commercial Communications
Bus & Motor
STARLINK V2M, Unknown motor
Mass
730 kg wet, ~700 kg dry
Launch date (UTC)
2024-11-07 (1 year ago)
Launch vehicle
FALCON 9
Launch site
Air Force Eastern Test Range (AFETR)
Object type
Payload
Rocket body
Debris
Shape & HBR
Box + 2 Pan, 17.7 m
Radar Cross Section
33.884 m², Large (>1 m²)

Expand to show TLE details & history
Last TLE update: 11 hours ago

TLE from 11 hours ago
0 STARLINK-32556
1 61858U 24202P   26035.11487679  .00000274  00000-0  19493-4 0  9990
2 61858  43.0017  67.5334 0001225 265.4408  94.6304 15.27575693 70207
Epoch: 2026-02-04T02:45Z
TLE epoch observation values (Epoch: 2026-02-04T02:45:25.354Z)
Latitude
-0.00001°
Longitude
-108.10835°
Altitude
482.906 km
Speed
7.626 km/s
True Right ascension
04h 30m 08s
True Declination
0° 00' 00"
Sunlit
Object was in daylight at epoch
Visualization orbit readout
Latitude
Unknown
Longitude
Unknown
Altitude
Unknown
Speed
Unknown
Apparent Right ascension
Unknown
Apparent Declination
Unknown
Sunlit
N/A
Visualization observer readout
Local Sidereal Time
15:53:28
Azimuth
Unknown
Elevation
Unknown
Doppler factor
Unknown
Orbital elements
Apogee altitude
485.848 km
Perigee altitude
484.166 km
Semi-major axis
6,863.144 km
Eccentricity
0.00012
Inclination
43.0017°
RAAN
67.5334°
Arg. of periapsis
265.4408°
True anomaly
94.64439°
Mean anomaly
94.6304°
Eccentric anomaly
94.6374°
Mean motion
3.81732 °/min
Orbital period
94.31 mins
BSTAR
0.000019493
Loading maneuver chart data...
Computing Atmospheric mass density...
Loading historical data...
Loading historical data...
Loading historical data...
Loading historical data...
Loading historical data...
Loading historical data...
Loading historical data...

Documentation

Showing up to 5 results
|